Flag for Germany Weather past 2 weeks in Wolfsburg, Lower Saxony, Germany

Now
43 °F

Passing clouds.


Feels Like: 43 °F
Forecast: 38 / 63 °F
Wind: 1 mph from Northeast

Location: Celle Airport

Current Time: Apr 20, 2015 at 1:03:48 AM

Latest Report: Apr 20, 2015 at 12:20 AM


Visibility: N/A

Pressure: 30.27 "Hg

Humidity: 66%

Dew point: 32 °F

Location of WolfsburgLocation

Historic Weather in Wolfsburg — Graph

°F

Wolfsburg temperature yesterday

Maximum temperature yesterday: 59 °F (at 3:20 PM)
Minimum temperature yesterday: 36 °F (at 4:20 AM)
Average temperature yesterday: 47 °F

Past Weeks' High & Low Weather Summary

 TemperatureHumidityPressure
High73 °F (Apr 15, 4:20 PM)100% (Apr 9, 2:20 AM)30.57 "Hg (Apr 9, 2:20 AM)
Low28 °F (Apr 5, 5:20 AM)28% (Apr 5, 4:20 PM)29.86 "Hg (Apr 15, 6:20 PM)
Average48 °F66%30.24 "Hg
* Reported Apr 4 11:20 PM — Apr 19 11:20 PM, Wolfsburg, Weather by CustomWeather, © 2015

Note: Actual official high and low records may vary slightly from our data, if they occured in-between our weather recording intervals... More about our weather records

Advertising

Wolfsburg weather history for previous 24 hours

 ConditionsComfort  
Time TempWeatherWind HumidityBarometerVisibility
11:20 PM
Sun, Apr 19
46 °FPassing clouds.5 mph62%30.27 "HgN/A
10:20 PM50 °FPassing clouds.2 mph50%30.24 "HgN/A
9:20 PM52 °FScattered clouds.2 mph47%30.24 "HgN/A
8:20 PM57 °FScattered clouds.2 mph36%30.21 "HgN/A
7:20 PM59 °FPassing clouds.5 mph34%30.21 "HgN/A
6:20 PM59 °FPassing clouds.3 mph36%30.18 "HgN/A
5:20 PM59 °FPassing clouds.5 mph36%30.18 "HgN/A
4:20 PM59 °FPassing clouds.3 mph36%30.21 "HgN/A
3:20 PM59 °FPassing clouds.5 mph36%30.21 "HgN/A
2:20 PM55 °FPassing clouds.6 mph41%30.21 "HgN/A
1:20 PM55 °FPassing clouds.5 mph41%30.21 "HgN/A
12:20 PM52 °FScattered clouds.6 mph62%30.21 "HgN/A
11:20 AM48 °FScattered clouds.5 mph66%30.24 "HgN/A
10:20 AM45 °FPassing clouds.2 mph71%30.24 "HgN/A
9:48 AM43 °FScattered clouds.5 mph76%30.24 "HgN/A
9:20 AM43 °FPartly sunny.2 mph76%30.24 "HgN/A
8:20 AM41 °FPartly sunny.1 mph87%30.21 "Hg5 mi
7:20 AM37 °FPartly sunny.1 mph93%30.21 "Hg4 mi
6:20 AM36 °FFog.2 mph93%30.21 "Hg3 mi
5:20 AM36 °FPartly cloudy.3 mph100%30.21 "Hg4 mi
4:20 AM36 °FPassing clouds.3 mph93%30.21 "HgN/A
3:20 AM37 °FPassing clouds.3 mph93%30.21 "HgN/A
2:20 AM37 °FPassing clouds.2 mph93%30.24 "HgN/A
1:20 AM39 °FPassing clouds.3 mph81%30.24 "HgN/A
Weather by CustomWeather, © 2015

See weather overviewHow to use our weather pages